Showing default

OTP-2, 63235

Orbit data source: Space-Track

OTP-2, 63235 is a payload satellite owned by Rogue Space (US) in SSO that was launched on Sat, 15 Mar 2025 UTC via an FALCON 9 launch vehicle from the Air Force Western Test Range (AFWTR). Payload-class satellites include a variety of spacecraft equipped with specific instruments for various scientific and technological missions. These include communications satellites like Starlink; space stations such as the ISS; scientific satellites like the Hubble; Earth observation satellites from companies like Planet Labs, Umbra, and HawkEye 360; GPS; miniature CubeSats for education and research; and military/defense satellites.

Loading next visibility...
Identifier
63235, 2025-052AB
Orbit
SSO
Country
Flag of USUS
Related business
Manufacturer
Rogue Space
Mission
Operational Commercial Technology
Bus & Motor
CUBESAT 8U, Unknown motor
Mass
11 kg wet, 11 kg dry
Launch date (UTC)
2025-03-15 (6 months ago)
Launch vehicle
FALCON 9
Launch site
Air Force Western Test Range (AFWTR)
Object type
Payload
Rocket body
Debris
Shape & HBR
Box + 2 Pan, 0.3 m
Radar Cross Section
0.055 m², Small (<0.1 m²)

Expand to show TLE details & history
Last TLE update: 1 day ago

TLE from 1 day ago
0 OTP-2
1 63235U 25052AB  25259.95322274  .00008881  00000-0  42384-3 0  9999
2 63235  97.4133 151.8185 0008669  51.7569 308.4445 15.19262711 28316
Epoch: 2025-09-16T22:52Z
TLE epoch observation values (Epoch: 2025-09-16T22:52:38.444Z)
Latitude
-0°
Longitude
172.52219°
Altitude
507.447 km
Speed
7.612 km/s
True Right ascension
10h 07m 16s
True Declination
0° 00' 00"
Sunlit
Object was in daylight at epoch
Visualization orbit readout
Latitude
Unknown
Longitude
Unknown
Altitude
Unknown
Speed
Unknown
Apparent Right ascension
Unknown
Apparent Declination
Unknown
Sunlit
N/A
Visualization observer readout
Local Sidereal Time
16:50:17
Azimuth
Unknown
Elevation
Unknown
Doppler factor
Unknown
Orbital elements
Apogee altitude
511.002 km
Perigee altitude
499.068 km
Semi-major axis
6,883.172 km
Eccentricity
0.00087
Inclination
97.4133°
RAAN
151.8185°
Arg. of periapsis
51.7569°
True anomaly
308.36664°
Mean anomaly
308.4445°
Eccentric anomaly
308.40558°
Mean motion
3.80067 °/min
Orbital period
94.72 mins
BSTAR
0.00042384
Loading maneuver chart data...
Computing Atmospheric mass density...
Loading historical data...
Loading historical data...
Loading historical data...
Loading historical data...
Loading historical data...
Loading historical data...
Loading historical data...

Documentation

Showing up to 5 results
|